Location: Newark
(41.8922°N, 9.0050°E)
Time: 07:25:33
(UTC+00:00)

Envisat - Pass Details

Date: 27 January 2020
Orbit: 764 x 766 km, 98.1° (Epoch: 20 February)

Event Time Altitude Azimuth Distance (km) Brightness Sun altitude
Rises 17:52:11 0° 188° (S) 3,218 6.5 -15.0°
Reaches altitude 10° 17:54:38 10° 196° (SSW) 2,296 5.8 -15.5°
Maximum altitude 17:59:17 36° 263° (W) 1,191 4.7 -16.3°
Drops below altitude 10° 18:03:59 10° 330° (NNW) 2,311 5.7 -17.2°
Sets 18:06:28 0° 339° (NNW) 3,241 6.4 -17.6°
